Weather History for Michigan City, IN

Change the Weather History Date:

Wednesday, April 10, 2013

  Actual Average (KVPZ) Record (KVPZ)
Temperature  
Mean Temperature 42 °F 47 °F  
Max Temperature 48 °F 58 °F 83 °F (2011)
Min Temperature 37 °F 37 °F 20 °F (2007)
Degree Days  
Heating Degree Days 22 18  
Month to date heating degree days 196  
Since 1 July heating degree days 5773  
Cooling Degree Days 0 0  
Month to date cooling degree days 0  
Year to date cooling degree days 0  
Moisture  
Dew Point 40 °F    
Average Humidity 95    
Maximum Humidity 100    
Minimum Humidity 87    
Precipitation  
Precipitation 0.00 in 0.12 in 1.17 in (2013)
Month to date precipitation 1.05  
Year to date precipitation 6.70  
Sea Level Pressure  
Sea Level Pressure 29.87 in    
Wind  
Wind Speed 4 mph (NNE)    
Max Wind Speed 15 mph    
Max Gust Speed 22 mph    
Visibility 7 miles    
Events Rain    
T = Trace of Precipitation, MM = Missing Value Source: NWS Daily Summary

Daily Weather History Graph

Daily Weather History Graph

Search for Another Location

Airport:

Trip Planner

Search our weather history database for the weather conditions in past years. The results will help you decide how hot, cold, wet, or windy it might be!

Date:

Astronomy

Apr. 10, 2013 Rise Set
Actual Time 6:14 AM CDT 7:22 PM CDT
Civil Twilight 5:46 AM CDT 7:51 PM CDT
Nautical Twilight 5:12 AM CDT 8:25 PM CDT
Astronomical Twilight 4:36 AM CDT 9:01 PM CDT
Moon 6:10 AM CDT (4/10) 7:59 PM CDT (4/10)
Length of Visible Light 14h 05m
Length of Day
13h 08m
New Moon, 0% of the Moon is Illuminated
Apr 10
New Moon
Apr 18
First Quarter
Apr 25
Full
May 2
Last Quarter
May 9
New

Hourly Weather History & Observations

Time (CDT) Temp. Windchill Dew Point Humidity Pressure Visibility Wind Dir Wind Speed Gust Speed Precip Events Conditions
12:15 AM 41.0 °F - 41.0 °F 100% 29.90 in 5.0 mi Calm Calm - N/A   Overcast
12:35 AM 41.0 °F - 41.0 °F 100% 29.90 in 5.0 mi Calm Calm - N/A   Overcast
12:55 AM 41.0 °F - 41.0 °F 100% 29.90 in 5.0 mi Calm Calm - N/A   Overcast
1:15 AM 42.8 °F - 41.0 °F 93% 29.91 in 5.0 mi Calm Calm - N/A   Overcast
1:35 AM 42.8 °F 41.1 °F 41.0 °F 93% 29.91 in 5.0 mi WNW 3.5 mph - N/A   Overcast
1:55 AM 42.8 °F - 41.0 °F 93% 29.88 in 5.0 mi Calm Calm - N/A   Overcast
2:15 AM 42.8 °F - 41.0 °F 93% 29.87 in 5.0 mi Calm Calm - N/A   Overcast
2:35 AM 42.8 °F - 41.0 °F 93% 29.86 in 5.0 mi Calm Calm - N/A   Overcast
2:55 AM 42.8 °F - 41.0 °F 93% 29.86 in 7.0 mi Calm Calm - N/A   Overcast
3:15 AM 42.8 °F - 41.0 °F 93% 29.87 in 7.0 mi Calm Calm - N/A   Overcast
3:35 AM 42.8 °F - 41.0 °F 93% 29.87 in 7.0 mi Calm Calm - N/A   Overcast
3:55 AM 42.8 °F - 41.0 °F 93% 29.86 in 5.0 mi Calm Calm - N/A   Overcast
4:15 AM 42.8 °F - 41.0 °F 93% 29.86 in 5.0 mi Calm Calm - N/A   Overcast
4:35 AM 42.8 °F 40.1 °F 41.0 °F 93% 29.87 in 5.0 mi NW 4.6 mph - N/A   Overcast
4:55 AM 41.0 °F 38.0 °F 39.2 °F 93% 29.86 in 5.0 mi North 4.6 mph - N/A   Overcast
5:15 AM 41.0 °F 37.1 °F 41.0 °F 100% 29.85 in 7.0 mi NE 5.8 mph - N/A   Overcast
5:35 AM 42.8 °F 39.3 °F 41.0 °F 93% 29.85 in 7.0 mi North 5.8 mph - N/A   Overcast
5:55 AM 42.8 °F 39.3 °F 41.0 °F 93% 29.85 in 10.0 mi North 5.8 mph - N/A   Overcast
6:15 AM 42.8 °F 40.1 °F 41.0 °F 93% 29.85 in 10.0 mi NE 4.6 mph - N/A   Overcast
6:35 AM 42.8 °F - 41.0 °F 93% 29.85 in 10.0 mi Calm Calm - N/A   Overcast
6:55 AM 42.8 °F - 41.0 °F 93% 29.85 in 10.0 mi Calm Calm - N/A   Overcast
7:15 AM 42.8 °F 41.1 °F 41.0 °F 93% 29.86 in 10.0 mi NNW 3.5 mph - N/A   Overcast
7:35 AM 42.8 °F 39.3 °F 41.0 °F 93% 29.88 in 10.0 mi NW 5.8 mph - N/A Rain Light Rain
7:55 AM 41.0 °F 35.2 °F 39.2 °F 93% 29.88 in 3.0 mi NNW 9.2 mph - N/A Rain Light Rain
8:15 AM 41.0 °F 35.8 °F 39.2 °F 93% 29.88 in 3.0 mi North 8.1 mph - N/A Rain Light Rain
8:35 AM 41.0 °F 33.9 °F 39.2 °F 93% 29.90 in 4.0 mi North 12.7 mph 17.3 mph N/A   Overcast
8:55 AM 37.4 °F 28.9 °F 37.4 °F 100% 29.91 in 2.5 mi North 13.8 mph 20.7 mph N/A Rain Light Rain
9:15 AM 37.4 °F 31.4 °F 37.4 °F 100% 29.89 in 5.0 mi ENE 8.1 mph 19.6 mph N/A   Light Drizzle
9:35 AM 39.2 °F 35.9 °F 37.4 °F 93% 29.89 in 10.0 mi East 4.6 mph - N/A   Overcast
9:55 AM 41.0 °F 37.1 °F 39.2 °F 93% 29.86 in 5.0 mi East 5.8 mph - N/A   Light Drizzle
10:15 AM 41.0 °F 37.1 °F 41.0 °F 100% 29.86 in 10.0 mi ENE 5.8 mph - N/A   Overcast
10:35 AM 42.8 °F - 41.0 °F 93% 29.86 in 10.0 mi Calm Calm - N/A   Overcast
10:55 AM 42.8 °F - 42.8 °F 100% 29.88 in 10.0 mi Calm Calm - N/A   Overcast
11:15 AM 44.6 °F - 44.6 °F 100% 29.89 in 3.0 mi Calm Calm - N/A   Light Drizzle
11:35 AM 46.4 °F 42.9 °F 44.6 °F 93% 29.86 in 4.0 mi SE 6.9 mph - N/A   Overcast
11:55 AM 48.2 °F - 46.4 °F 93% 29.86 in 7.0 mi South 4.6 mph - N/A   Overcast
12:15 PM 46.4 °F 41.5 °F 44.6 °F 93% 29.86 in 7.0 mi NW 10.4 mph - N/A   Overcast
12:35 PM 41.0 °F 33.9 °F 39.2 °F 93% 29.90 in 10.0 mi NNW 12.7 mph 17.3 mph N/A   Overcast
12:55 PM 39.2 °F 31.6 °F 37.4 °F 93% 29.92 in 10.0 mi North 12.7 mph 21.9 mph N/A   Overcast
1:15 PM 39.2 °F 35.0 °F 37.4 °F 93% 29.88 in 10.0 mi NE 5.8 mph 18.4 mph N/A   Overcast
1:35 PM 41.0 °F 36.4 °F 39.2 °F 93% 29.90 in 7.0 mi North 6.9 mph - N/A   Overcast
1:55 PM 41.0 °F 34.7 °F 37.4 °F 87% 29.92 in 10.0 mi North 10.4 mph 16.1 mph N/A   Overcast
2:15 PM 39.2 °F 33.6 °F 37.4 °F 93% 29.94 in 7.0 mi North 8.1 mph - N/A   Overcast
2:35 PM 39.2 °F 30.8 °F 37.4 °F 93% 29.85 in 7.0 mi NE 15.0 mph - N/A Rain Light Rain
2:55 PM 39.2 °F 34.2 °F 37.4 °F 93% 29.92 in 7.0 mi NNE 6.9 mph - N/A Rain Light Rain
3:15 PM 39.2 °F 35.9 °F 37.4 °F 93% 29.89 in 10.0 mi NNE 4.6 mph - N/A   Overcast
3:35 PM 39.2 °F 37.0 °F 37.4 °F 93% 29.91 in 10.0 mi North 3.5 mph - N/A   Overcast
3:55 PM 39.2 °F - 37.4 °F 93% 29.89 in 10.0 mi Calm Calm - N/A   Overcast
4:15 PM 41.0 °F - 41.0 °F 100% 29.91 in 7.0 mi Calm Calm - N/A   Overcast
4:35 PM 42.8 °F 39.3 °F 41.0 °F 93% 29.92 in 10.0 mi NW 5.8 mph - N/A Rain Light Rain
4:55 PM 41.0 °F 38.0 °F 39.2 °F 93% 29.92 in 10.0 mi North 4.6 mph - N/A   Overcast
5:15 PM 41.0 °F 37.1 °F 39.2 °F 93% 29.91 in 10.0 mi North 5.8 mph - N/A   Overcast
5:35 PM 41.0 °F 36.4 °F 39.2 °F 93% 29.97 in 10.0 mi West 6.9 mph - N/A   Overcast
5:55 PM 41.0 °F 37.1 °F 39.2 °F 93% 29.91 in 5.0 mi NE 5.8 mph - N/A Rain Rain
6:15 PM 41.0 °F 37.1 °F 41.0 °F 100% 29.86 in 5.0 mi NE 5.8 mph - N/A Rain Light Rain
6:35 PM 42.8 °F 40.1 °F 41.0 °F 93% 29.84 in 7.0 mi East 4.6 mph - N/A   Overcast
6:55 PM 42.8 °F 38.6 °F 42.8 °F 100% 29.83 in 10.0 mi ENE 6.9 mph - N/A   Overcast
7:15 PM 42.8 °F 38.0 °F 42.8 °F 100% 29.85 in 10.0 mi NE 8.1 mph - N/A   Overcast
7:35 PM 42.8 °F - 41.0 °F 93% 29.86 in 7.0 mi Calm Calm - N/A   Overcast
7:55 PM 42.8 °F 38.6 °F 41.0 °F 93% 29.85 in 10.0 mi East 6.9 mph - N/A   Overcast
8:15 PM 42.8 °F 38.6 °F 41.0 °F 93% 29.86 in 10.0 mi ENE 6.9 mph - N/A   Overcast
8:35 PM 42.8 °F 38.0 °F 41.0 °F 93% 29.86 in 10.0 mi ENE 8.1 mph - N/A   Overcast
8:55 PM 42.8 °F 37.0 °F 41.0 °F 93% 29.83 in 10.0 mi ENE 10.4 mph - N/A   Overcast
9:15 PM 42.8 °F 38.0 °F 41.0 °F 93% 29.83 in 7.0 mi ENE 8.1 mph - N/A   Overcast
9:35 PM 42.8 °F 39.3 °F 41.0 °F 93% 29.84 in 7.0 mi ENE 5.8 mph - N/A   Overcast
9:55 PM 42.8 °F 40.1 °F 41.0 °F 93% 29.84 in 7.0 mi East 4.6 mph - N/A   Overcast
10:15 PM 41.0 °F 35.8 °F 41.0 °F 100% 29.83 in 7.0 mi East 8.1 mph - N/A   Overcast
10:35 PM 41.0 °F 36.4 °F 41.0 °F 100% 29.83 in 7.0 mi ESE 6.9 mph - N/A Rain Light Rain
10:55 PM 41.0 °F 37.1 °F 41.0 °F 100% 29.84 in 5.0 mi ENE 5.8 mph - N/A Rain Light Rain
11:15 PM 41.0 °F 39.0 °F 41.0 °F 100% 29.87 in 5.0 mi NE 3.5 mph - N/A Rain Rain
11:35 PM 41.0 °F 34.3 °F 41.0 °F 100% 29.84 in 7.0 mi NE 11.5 mph - N/A Rain Heavy Rain
11:55 PM 41.0 °F 35.8 °F 41.0 °F 100% 29.82 in 5.0 mi NE 8.1 mph 18.4 mph N/A Rain Rain